Location: Blazny
(46.0612°N, 84.4033°W)
Time: 23:24:05
(UTC-04:00)

Tiangong - Visible Passes

Search period start: 14 September 2024 00:00
Search period end: 24 September 2024 00:00
Orbit: 375 x 377 km, 41.5° (Epoch: 14 September)

Date Brightness Start Highest point End Pass type
(mag) Time Alt. Az. Time Alt. Az. Time Alt. Az.
18 Sep -0.1 20:41:58 10° S 20:43:44 14° SSE 20:44:18 14° SE visible
19 Sep -0.7 21:14:31 10° SW 21:16:38 24° S 21:16:38 24° S visible
20 Sep -0.4 20:12:09 10° SSW 20:14:26 19° SSE 20:16:44 10° ESE visible
20 Sep 0.2 21:47:45 10° WSW 21:48:47 18° SW 21:48:47 18° SW visible
21 Sep -1.1 20:44:58 10° SW 20:47:45 30° S 20:48:47 24° SE visible
22 Sep -1.0 21:18:11 10° WSW 21:20:39 33° SSW 21:20:39 33° SSW visible
23 Sep -1.1 20:15:12 10° WSW 20:18:02 33° S 20:20:25 13° ESE visible
23 Sep 0.5 21:51:33 10° WSW 21:52:24 16° WSW 21:52:24 16° WSW visible
